Location: Amsterdam
(30.7274°N, 84.4357°W)
Time: 02:52:24
(UTC+00:00)

Transit 2A Rocket - Pass Details

Date: 20 February 2026
Orbit: 583 x 900 km, 66.7° (Epoch: 8 March)

Event Time Altitude Azimuth Distance (km) Brightness Sun altitude
Rises 07:41:58 0° 315° (NW) 3,217 - -57.6°
Reaches altitude 10° 07:45:12 10° 295° (WNW) 2,219 - -57.0°
Maximum altitude 07:48:21 17° 256° (WSW) 1,732 - -56.4°
Drops below altitude 10° 07:51:21 10° 217° (SW) 2,083 - -55.9°
Sets 07:54:16 0° 196° (SSW) 2,933 - -55.3°
